User: anonymous   Login
Location: Unspecified
(0.0000°N, 0.0000°E)
Time: 05:49:50
(UTC+00:00)
Language:

TBA - TO BE ASSIGNED - Orbit

View from above orbital plane
View from above orbital plane
View from above satellite
View from above satellite

Ground track
Ground track

The orbit is defined by the following mean orbital elements,

1 67543U          26145.61973242 +.00000000 +00000-0 -25544-4 0 00005
2 67543  97.2859  32.6690 0002210  89.5074 270.6422 15.33438219    03
Epoch (UTC): 25 May 2026 14:52:24
Eccentricity: 0.0002210
inclination: 97.2859°
perigee height: 464 km
apogee height: 467 km
right ascension of ascending node: 32.6690°
argument of perigee: 89.5074°
revolutions per day: 15.33438219
mean anomaly at epoch: 270.6422°

The dashed part of the orbit path shows where the satellite is in the earth's shadow,  

DLR